Overview Statistics Trail Chart Weather Telemetry Raw packets
 

This is the latest recevied weather packets stored in our database for station/object KD7AWQ. If no packets are shown the sender has not sent any weather packets the latest 10 day(s).

<< 7 8 9 10 11 12 13 >>
Time Temp. Humidity Pressure Rain* Wind** Luminosity Snow
1788401369 27.78° C 40% 1187.1 hPa 0 mm - 0 W/m² -
1788401064 27.78° C 39% 1186.6 hPa 0 mm - 0 W/m² -
1788400759 27.78° C 39% 1186.6 hPa 0 mm - 0 W/m² -
1788400455 27.78° C 39% 1186.9 hPa 0 mm - 1 W/m² -
1788400150 28.33° C 38% 1186.6 hPa 0 mm - 3 W/m² -
1788399849 28.33° C 38% 1186.6 hPa 0 mm - 5 W/m² -
1788399544 28.33° C 38% 1186.6 hPa 0 mm - 8 W/m² -
1788399244 28.33° C 38% 1186.5 hPa 0 mm - 13 W/m² -
1788398943 28.33° C 38% 1186.3 hPa 0 mm - 16 W/m² -
1788398643 28.33° C 37% 1186.4 hPa 0 mm - 19 W/m² -
1788398341 28.33° C 37% 1186.7 hPa 0 mm - 23 W/m² -
1788398036 28.89° C 36% 1187 hPa 0 mm - 29 W/m² -
1788397732 28.89° C 36% 1186.5 hPa 0 mm - 45 W/m² -
1788397427 28.89° C 34% 1186.6 hPa 0 mm - 54 W/m² -
1788397125 28.89° C 33% 1186.6 hPa 0 mm - 54 W/m² -
1788396820 28.89° C 31% 1186.6 hPa 0 mm - 51 W/m² -
1788396517 28.89° C 30% 1186.6 hPa 0 mm - 64 W/m² -
1788396212 28.89° C 37% 1186.6 hPa 0 mm - 70 W/m² -
1788395907 28.89° C 37% 1186.7 hPa 0 mm - 76 W/m² -
1788395602 28.89° C 35% 1186.9 hPa 0 mm - 75 W/m² -
1788395301 28.89° C 30% 1186.7 hPa 0 mm - 85 W/m² -
1788395002 28.89° C 34% 1186.5 hPa 0 mm - 110 W/m² -
1788394696 28.89° C 37% 1187 hPa 0 mm - 105 W/m² -
1788394391 28.89° C 37% 1186.7 hPa 0 mm - 104 W/m² -
1788394086 29.44° C 38% 1186.5 hPa 0 mm - 91 W/m² -

* Rain latest hour (hover to see other rain measurements)
** Current wind speed in m/s (hover to see current wind gust speed)